Other Public Products
Issued by NWS Charleston, SC

Current Version | Previous Version | Graphics & Text | Print | Product List | Glossary On
Versions: 1 2 3 4 5 6 7 8 9 10 11 12 13 14 15 16 17 18 19 20 21 22 23 24 25 26 27 28 29 30 31 32 33 34 35 36 37 38 39 40 41 42 43 44 45 46 47 48 49 50
060
FPUS82 KCHS 221627
OPUCHS

TEST...KCHS/KSAV Gateway Observations...TEST
National Weather Service Charleston SC
1200 PM EDT WED MAR 22 2017

NOTE: "fair" indicates few or no clouds below 12,000 feet with no
significant weather and/or obstructions to visibility.

SCZ050-WAZ558-NCZ071-TXZ119-213-PAZ071-DCZ001-FLZ074-172-MI076-
NYZ176-178-MAZ016-IL014-TNZ027-NJZ106-GAZ044-MD014-221700-

...Gateway Observations for Charleston International...

CITY           SKY/WX    TMP DP  RH WIND       PRES   REMARKS
Chas Airport   MOSUNNY   71  47  42 NE18G25   30.06R
Seattle        PTSUNNY   52  43  71 S10       29.79R
Charlotte      CLOUDY    61  37  41 N17       30.17R
Dallas DFW     MOSUNNY   77  64  64 S12G26    30.10S
Dallas Love    CLOUDY    73  63  70 S12       30.11S
Philladelphia  MOSUNNY   40   7  25 NW24G32   30.20R WCI  29
Wash National  MOSUNNY   45  18  34 NW17G24   30.26R
Baltimore      MOSUNNY   43  13  29 NW20G26   30.22R
Miami          MOSUNNY   76  55  48 W7        30.12S
Detroit        MOSUNNY   31   9  39 N10       30.58R WCI  22
Newark         MOSUNNY   36   4  26 NW25G37   30.17R WCI  24
Laguardia      MOSUNNY   35   7  31 NW31G39   30.14R WCI  22
J F K          MOSUNNY   37   7  28 NW29G37   30.14R WCI  25
Boston Logan   MOSUNNY   34  12  40 NW23G35   29.93R WCI  22
Ft. Lauderdale SUNNY     77  53  43 NW6       30.12R
Chicago O`Hare CLOUDY    34  18  52 NE12      30.58R WCI  25
Chicago Midway PTSUNNY   31  17  56 NE10G24   30.59R WCI  22
Houston Bush   MOSUNNY   75  64  68 S6        30.17S
Houston Hobby  MOSUNNY   76  64  66 SW7       30.17R
Nashville      PTSUNNY   50  25  37 NE14      30.36R
Atlanta        PTSUNNY   60  48  64 NW15      30.16R

$$

GAZ044-118-TXZ119-213-NCZ071-DCZ001-MDZ014-506-PAZ021-071-NJZ106-
NYZ176-178-MAZ106-OHZ011-021-055-MIZ076-KYZ091-ILZ014-INZ047-
MNZ060-ONZ431-221700-

...Gateway Observations for Savannah International...

CITY           SKY/WX    TMP DP  RH WIND       PRES   REMARKS
Savannah Arpt  MOSUNNY   77  56  48 N12       30.06R
Atlanta        PTSUNNY   60  48  64 NW15      30.16R
Charlotte      CLOUDY    61  37  41 N17       30.17R
Dallas DFW     MOSUNNY   77  64  64 S12G26    30.10S
Houston Bush   MOSUNNY   75  64  68 S6        30.17S
Wash National  MOSUNNY   45  18  34 NW17G24   30.26R
Wash Dulles    MOSUNNY   42  14  32 NW23G32   30.26R
Baltimore      MOSUNNY   43  13  29 NW20G26   30.22R
Philadelphia   MOSUNNY   40   7  25 NW24G32   30.20R WCI  29
Newark         MOSUNNY   36   4  26 NW25G37   30.17R WCI  24
Laguardia      MOSUNNY   35   7  31 NW31G39   30.14R WCI  22
J F K          MOSUNNY   37   7  28 NW29G37   30.14R WCI  25
Boston         MOSUNNY   34  12  40 NW23G35   29.93R WCI  22
Pittsburg      MOSUNNY   32  12  43 NW15G24   30.41R WCI  22
Akron          PTSUNNY   31  14  49 NE9       30.46R WCI  23
Cleveland      PTSUNNY   29  11  47 N15       30.55R WCI  18
Cincinnati     SUNNY     35  17  47 NE14G20   30.49R WCI  26
Columbus       MOSUNNY   32  15  49 N12       30.51R WCI  23
Detroit        MOSUNNY   31   9  39 N10       30.58R WCI  22
Chicago O`Hare CLOUDY    34  18  52 NE12      30.58R WCI  25
Minneapolis    MOSUNNY   31   7  36 SE14      30.55S WCI  21
Indianapolis   MOSUNNY   33  13  43 NE9       30.53R WCI  25
Toronto Canada MOSUNNY   21  -4  33 N20G26    30.50S WCI   6

$$




USA.gov is the U.S. government's official web portal to all federal, state and local government web resources and services.